Wenatchee, WA
on Monday, November 5, 2012

Monday
Previous Day Next Day
Daily Summary
 ActualAverageRecord
Temperature
Mean Temperature °F / °C 38°F / 3°C  
Max Temperature 57°F / 14°C 46°F / 8°C 58°F / 14°C (1989)
Min Temperature 36°F / 2°C 30°F / -1°C 14°F / -10°C (1973)
Degree Days
Heating Degree Days 18 27  
Month to date heating degree days 84 131  
Since 1 July heating degree days 883 1087  
Cooling Degree Days 0 0  
Month to date cooling degree days 0 0  
Year to date cooling degree days 294 249  
Growing Degree Days4 (Base °F / °C )  
Moisture
Dew Point 41°F / 5°C   
Average Humidity 66    
Maximum Humidity 93    
Minimum Humidity 38    
Precipitation
Precipitation 0.00 in / 0.00 cm 0.06 in / 1.52 cm 0.42 in / 1.07 cm (2005)
Month to date precipitation 0.25 0.29  
Year to date precipitation 17.35 12.63  
Snow
Snow 0.00 in / 0.00 cm 0.00 in / 0.00 cm in / cm ()
Month to date snowfall 0.0 0.2  
Since 1 July snowfall T 0.3  
Since 1 September snowfall T 0.3  
Snow Depth 0.00 in / 0.00 cm   
Wind
Wind Speed 5 mph / 8 km/h   
Max Wind Speed 18 mph / 29 km/h   
Max Gust Speed 25 mph / 40 km/h   
Visibility 9 miles / 15 kilometers   
Events     

Key: T is trace of precipitation, MM is missing value
Source: NWS Daily Summary
Time(PST)TemperatureDew PointHumidity Pressure Visibility Wind DirectionWind SpeedGust SpeedPrecipitationEvents Conditions
12:55 AM 50.0°F / 10.0°C 46.0°F / 7.8°C 86% 30.21 in / 1023.0 hPa 10.0 miles / 16.1 kilometers Calm Calm - N/A   Mostly Cloudy
1:55 AM 48.9°F / 9.4°C 45.0°F / 7.2°C 86% 30.18 in / 1022.0 hPa 10.0 miles / 16.1 kilometers East 4.6 mph / 7.4 km/h - N/A   Clear
2:55 AM 50.0°F / 10.0°C 46.0°F / 7.8°C 86% 30.17 in / 1021.6 hPa 10.0 miles / 16.1 kilometers Calm Calm - N/A   Clear
3:55 AM 48.9°F / 9.4°C 46.0°F / 7.8°C 90% 30.15 in / 1020.9 hPa 10.0 miles / 16.1 kilometers NE 3.5 mph / 5.6 km/h - N/A   Clear
4:55 AM 48.0°F / 8.9°C 45.0°F / 7.2°C 89% 30.15 in / 1020.8 hPa 10.0 miles / 16.1 kilometers Calm Calm - N/A   Clear
5:55 AM 46.9°F / 8.3°C 43.0°F / 6.1°C 86% 30.16 in / 1021.1 hPa 8.0 miles / 12.9 kilometers NNW 4.6 mph / 7.4 km/h - N/A   Clear
6:55 AM 48.0°F / 8.9°C 45.0°F / 7.2°C 89% 30.18 in / 1021.8 hPa 10.0 miles / 16.1 kilometers Calm Calm - N/A   Clear
7:33 AM 46.4°F / 8.0°C 44.6°F / 7.0°C 93% 30.19 in / 1022.2 hPa 1.8 miles / 2.8 kilometers WSW 3.5 mph / 5.6 km/h - N/A   Clear
7:42 AM 48.2°F / 9.0°C 44.6°F / 7.0°C 87% 30.20 in / 1022.6 hPa 3.0 miles / 4.8 kilometers West 3.5 mph / 5.6 km/h - N/A   Clear
7:55 AM 48.9°F / 9.4°C 46.0°F / 7.8°C 90% 30.22 in / 1023.3 hPa 5.0 miles / 8.0 kilometers West 3.5 mph / 5.6 km/h - N/A   Clear
8:55 AM 51.1°F / 10.6°C 46.0°F / 7.8°C 83% 30.25 in / 1024.1 hPa 10.0 miles / 16.1 kilometers South 4.6 mph / 7.4 km/h - N/A   Clear
9:55 AM 57.9°F / 14.4°C 41.0°F / 5.0°C 53% 30.25 in / 1024.1 hPa 10.0 miles / 16.1 kilometers NW 12.7 mph / 20.4 km/h - N/A   Clear
10:55 AM 60.1°F / 15.6°C 39.9°F / 4.4°C 47% 30.25 in / 1024.2 hPa 10.0 miles / 16.1 kilometers NW 18.4 mph / 29.6 km/h - N/A   Clear
11:55 AM 63.0°F / 17.2°C 37.0°F / 2.8°C 38% 30.25 in / 1024.3 hPa 10.0 miles / 16.1 kilometers NW 18.4 mph / 29.6 km/h 25.3 mph / 40.7 km/h N/A   Clear
12:55 PM 63.0°F / 17.2°C 37.0°F / 2.8°C 38% 30.24 in / 1023.9 hPa 10.0 miles / 16.1 kilometers NNW 9.2 mph / 14.8 km/h - N/A   Clear
2:55 PM 61.0°F / 16.1°C 35.1°F / 1.7°C 38% 30.23 in / 1023.7 hPa 10.0 miles / 16.1 kilometers NW 15.0 mph / 24.1 km/h - N/A   Clear
3:55 PM 60.1°F / 15.6°C 35.1°F / 1.7°C 39% 30.23 in / 1023.7 hPa 10.0 miles / 16.1 kilometers NW 15.0 mph / 24.1 km/h - N/A   Clear
4:55 PM 57.0°F / 13.9°C 36.0°F / 2.2°C 45% 30.22 in / 1023.3 hPa 10.0 miles / 16.1 kilometers North 8.1 mph / 13.0 km/h - N/A   Clear
5:55 PM 57.0°F / 13.9°C 36.0°F / 2.2°C 45% 30.23 in / 1023.6 hPa 10.0 miles / 16.1 kilometers NW 8.1 mph / 13.0 km/h - N/A   Clear
6:55 PM 55.0°F / 12.8°C 37.0°F / 2.8°C 51% 30.21 in / 1022.9 hPa 10.0 miles / 16.1 kilometers WNW 5.8 mph / 9.3 km/h - N/A   Clear
7:55 PM 53.1°F / 11.7°C 37.9°F / 3.3°C 57% 30.21 in / 1023.0 hPa 10.0 miles / 16.1 kilometers NNW 6.9 mph / 11.1 km/h - N/A   Clear
8:55 PM 52.0°F / 11.1°C 37.0°F / 2.8°C 57% 30.21 in / 1022.8 hPa 10.0 miles / 16.1 kilometers NNW 11.5 mph / 18.5 km/h - N/A   Clear
9:32 PM 50.0°F / 10.0°C 37.4°F / 3.0°C 62% 30.20 in / 1022.6 hPa 10.0 miles / 16.1 kilometers North - - N/A   Clear
9:40 PM 51.8°F / 11.0°C 37.4°F / 3.0°C 58% 30.20 in / 1022.6 hPa 10.0 miles / 16.1 kilometers NW 10.4 mph / 16.7 km/h - N/A   Clear
9:55 PM 50.0°F / 10.0°C 37.9°F / 3.3°C 63% 30.20 in / 1022.6 hPa 10.0 miles / 16.1 kilometers West 8.1 mph / 13.0 km/h - N/A   Clear
10:55 PM 48.0°F / 8.9°C 39.0°F / 3.9°C 71% 30.19 in / 1022.1 hPa 10.0 miles / 16.1 kilometers WNW 4.6 mph / 7.4 km/h - N/A   Clear
11:55 PM 46.9°F / 8.3°C 37.0°F / 2.8°C 68% 30.19 in / 1022.2 hPa 10.0 miles / 16.1 kilometers Calm Calm - N/A   Clear
Moon Phase
Nov. 05 Nov. 06 Nov. 13 Nov. 20 Nov. 28
Sunrise:06:51 AM (PST) Moon Rise:10:20 PM (PST)11/5
Sunset:04:36 PM (PST) Moon Set:12:14 PM (PST)11/5

Copyright © 2014 The Weather Underground, Inc.